Location: Vihti�l�
(61.3833°N, 23.0667°E)
Time: 03:30:57
(UTC+00:00)

Cosmos 494 Rocket - Pass Details

Date: 29 November 2020
Orbit: 743 x 770 km, 74.1° (Epoch: 19 January)

Event Time Altitude Azimuth Distance (km) Brightness Sun altitude
Exits shadow 05:15:40 14° 319° (NW) 2,052 5.7 -12.0°
Maximum altitude 05:20:00 49° 248° (WSW) 966 4.3 -11.5°
Drops below altitude 10° 05:24:56 10° 174° (S) 2,267 6.9 -11.0°
Sets 05:27:20 0° 169° (S) 3,184 7.8 -10.7°
